EW4115 Weather Reports


Display with metric or nautical units.
time (UTC)temp
F
wind
direction
speed
MPH
gust
MPH
rain 1hr
in
rain 24hr
in
rain mn
in
humidity
%
barometer
mb
20260902023055 82 350 0.0 4.0 0.00 0.00 0.00 45 1013.4
20260902021606 82 92 3.0 9.0 0.00 0.00 0.00 44 1013.5
20260902020055 82 310 3.0 9.0 0.00 0.00 0.00 45 1013.4
20260902014554 82 332 3.0 11.0 0.00 0.00 0.00 44 1013.5
20260902013053 82 360 1.0 4.0 0.00 0.00 0.00 44 1013.6
20260902011553 82 355 1.0 4.0 0.00 0.00 0.00 45 1013.6
20260902010052 82 350 0.0 4.0 0.00 0.00 0.00 46 1013.5
20260902004551 82 316 0.0 3.0 0.00 0.00 0.00 47 1013.5
20260902003050 82 316 0.0 3.0 0.00 0.00 0.00 48 1013.5
20260902001549 82 316 0.0 3.0 0.00 0.00 0.00 49 1013.4
20260902000052 82 315 0.0 1.0 0.00 0.00 0.00 51 1013.4
20260901234554 82 315 0.0 1.0 0.00 0.00 0.00 51 1013.4
20260901233045 83 315 0.0 1.0 0.00 0.00 0.00 51 1013.4
20260901231543 83 315 0.0 3.0 0.00 0.00 0.00 50 1013.5
20260901230046 83 315 0.0 3.0 0.00 0.00 0.00 50 1013.5
20260901224540 83 315 0.0 5.0 0.00 0.00 0.00 50 1013.6
20260901223039 83 7 1.0 6.0 0.00 0.00 0.00 50 1013.6
20260901221602 83 350 1.0 5.0 0.00 0.00 0.00 50 1013.7
20260901220032 83 131 1.0 5.0 0.00 0.00 0.00 50 1013.6
20260901214528 83 66 0.0 5.0 0.00 0.00 0.00 49 1013.6
20260901213051 83 42 1.0 9.0 0.00 0.00 0.00 49 1013.4
20260901211535 83 306 0.0 3.0 0.00 0.00 0.00 50 1013.6
20260901210020 84 305 0.0 1.0 0.00 0.00 0.00 50 1013.5
20260901204515 84 305 0.0 1.0 0.00 0.00 0.00 50 1013.5
20260901203024 84 305 0.0 2.0 0.00 0.00 0.00 49 1013.5
20260901201513 84 305 0.0 2.0 0.00 0.00 0.00 49 1013.5
20260901200029 84 304 1.0 5.0 0.00 0.00 0.00 48 1013.5
20260901194513 85 350 0.0 3.0 0.00 0.00 0.00 48 1013.5
20260901193017 85 350 0.0 6.0 0.00 0.00 0.00 47 1013.5
20260901191513 85 319 0.0 4.0 0.00 0.00 0.00 47 1013.5
20260901190011 85 316 1.0 5.0 0.00 0.00 0.00 47 1013.5
20260901184510 85 314 0.0 2.0 0.00 0.00 0.00 46 1013.3
20260901183012 86 314 0.0 3.0 0.00 0.00 0.00 45 1013.3
20260901181513 86 314 0.0 4.0 0.00 0.00 0.00 44 1013.1
20260901180010 86 5 0.0 4.0 0.00 0.00 0.00 44 1013.0
20260901174508 86 333 0.0 3.0 0.00 0.00 0.00 43 1012.9
20260901173008 87 60 0.0 4.0 0.00 0.00 0.00 43 1012.7
20260901171506 87 74 0.0 2.0 0.00 0.00 0.00 42 1012.6
20260901170007 87 74 1.0 5.0 0.00 0.00 0.00 42 1012.6
20260901164510 88 72 0.0 1.0 0.00 0.00 0.00 43 1012.5
20260901163005 89 72 0.0 3.0 0.00 0.00 0.00 42 1012.4
20260901161505 89 72 1.0 4.0 0.00 0.00 0.00 41 1012.2
20260901160004 89 108 3.0 10.0 0.00 0.00 0.00 40 1012.2
20260901154515 89 173 0.0 7.0 0.00 0.00 0.00 41 1012.1
20260901153005 90 103 3.0 9.0 0.00 0.00 0.00 39 1012.2
20260901151504 92 59 1.0 7.0 0.00 0.00 0.00 37 1012.2
20260901150002 92 79 1.0 8.0 0.00 0.00 0.00 36 1012.2
20260901144501 93 153 2.0 10.0 0.00 0.00 0.00 34 1012.2
20260901143101 93 360 2.0 8.0 0.00 0.00 0.00 34 1012.2
20260901141602 93 19 2.0 10.0 0.00 0.00 0.00 33 1012.3
20260901140058 93 77 5.0 11.0 0.00 0.00 0.00 33 1012.4
20260901134611 94 345 4.0 10.0 0.00 0.00 0.00 33 1012.5
20260901133103 94 99 4.0 16.0 0.00 0.00 0.00 33 1012.4
20260901131603 94 19 4.0 11.0 0.00 0.00 0.00 32 1012.4
20260901130056 94 93 4.0 15.0 0.00 0.00 0.00 32 1012.4
20260901124555 94 15 3.0 10.0 0.00 0.00 0.00 32 1012.6
20260901123057 94 350 3.0 8.0 0.00 0.00 0.00 31 1012.9
20260901121549 94 66 2.0 10.0 0.00 0.00 0.00 31 1013.1
20260901120046 94 10 2.0 10.0 0.00 0.00 0.00 31 1013.0
20260901114544 94 8 3.0 10.0 0.00 0.00 0.00 31 1013.0
20260901113037 93 87 3.0 9.0 0.00 0.00 0.00 32 1013.1
20260901111537 93 329 5.0 14.0 0.00 0.00 0.00 32 1013.2
20260901110033 93 330 4.0 11.0 0.00 0.00 0.00 33 1013.2
20260901104606 92 83 3.0 14.0 0.00 0.00 0.00 32 1013.2
20260901103023 92 339 5.0 14.0 0.00 0.00 0.00 32 1013.3
20260901101608 92 314 3.0 11.0 0.00 0.00 0.00 32 1013.5
20260901100034 92 339 3.0 12.0 0.00 0.00 0.00 34 1013.4
20260901094623 92 60 3.0 11.0 0.00 0.00 0.00 34 1013.5
20260901093047 91 328 3.0 13.0 0.00 0.00 0.00 35 1013.5
20260901091510 91 4 3.0 10.0 0.00 0.00 0.00 36 1013.5
20260901090101 90 85 5.0 14.0 0.00 0.00 0.00 35 1013.5
20260901084518 90 21 3.0 13.0 0.00 0.00 0.00 37 1013.5
20260901083106 89 92 4.0 9.0 0.00 0.00 0.00 37 1013.5
20260901081524 89 318 5.0 11.0 0.00 0.00 0.00 38 1013.5
20260901080116 88 114 4.0 9.0 0.00 0.00 0.00 39 1013.4
20260901074539 87 301 4.0 11.0 0.00 0.00 0.00 41 1013.4
20260901073131 87 59 2.0 12.0 0.00 0.00 0.00 43 1013.4
20260901071556 87 355 4.0 10.0 0.00 0.00 0.00 41 1013.3
20260901070012 87 360 2.0 6.0 0.00 0.00 0.00 41 1013.1
20260901064600 87 324 1.0 5.0 0.00 0.00 0.00 43 1013.1
20260901063027 86 12 1.0 5.0 0.00 0.00 0.00 44 1013.1
20260901061611 85 7 1.0 3.0 0.00 0.00 0.00 45 1013.2
20260901060028 84 7 0.0 3.0 0.00 0.00 0.00 46 1013.2
20260901054618 83 10 0.0 2.0 0.00 0.00 0.00 47 1013.3
20260901053045 82 10 0.0 1.0 0.00 0.00 0.00 49 1013.3
20260901051539 80 10 0.0 1.0 0.00 0.00 0.00 54 1013.2
20260901050030 78 10 0.0 0.0 0.00 0.00 0.00 57 1013.1
20260901044525 77 10 0.0 1.0 0.00 0.00 0.00 58 1013.1
20260901043023 76 10 0.0 0.0 0.00 0.00 0.00 58 1012.9
20260901041517 76 10 0.0 1.0 0.00 0.00 0.00 56 1012.8
20260901040015 76 10 0.0 1.0 0.00 0.00 0.00 55 1012.7
20260901034515 76 10 0.0 1.0 0.00 0.00 0.00 54 1012.6
20260901033012 77 10 0.0 1.0 0.00 0.00 0.00 53 1012.5
20260901031510 77 10 0.0 1.0 0.00 0.00 0.00 52 1012.5
20260901030008 77 10 0.0 1.0 0.00 0.00 0.00 51 1012.5
20260901024506 78 10 0.0 0.0 0.00 0.00 0.00 50 1012.5